Year,Month,Day,Hour,Minute,Value (Times are PST for temperature in C)
2016,09,22,00,01,11.40
2016,09,22,00,02,11.40
2016,09,22,00,03,11.40
2016,09,22,00,04,11.40
2016,09,22,00,06,11.40
2016,09,22,00,07,11.40
2016,09,22,00,09,11.40
2016,09,22,00,11,11.40
2016,09,22,00,12,11.30
2016,09,22,00,13,11.30
2016,09,22,00,14,11.30
2016,09,22,00,16,11.30
2016,09,22,00,17,11.30
2016,09,22,00,18,11.20
2016,09,22,00,19,11.20
2016,09,22,00,21,11.20
2016,09,22,00,22,11.20
2016,09,22,00,23,11.20
2016,09,22,00,24,11.30
2016,09,22,00,26,11.30
2016,09,22,00,27,11.30
2016,09,22,00,28,11.30
2016,09,22,00,29,11.30
2016,09,22,00,31,11.30
2016,09,22,00,32,11.30
2016,09,22,00,33,11.30
2016,09,22,00,34,11.30
2016,09,22,00,36,11.30
2016,09,22,00,37,11.30
2016,09,22,00,38,11.30
2016,09,22,00,40,11.30
2016,09,22,00,41,11.30
2016,09,22,00,42,11.30
2016,09,22,00,43,11.20
2016,09,22,00,44,11.20
2016,09,22,00,45,11.20
2016,09,22,00,46,11.20
2016,09,22,00,47,11.20
2016,09,22,00,48,11.10
2016,09,22,00,49,11.10
2016,09,22,00,50,11.10
2016,09,22,00,51,11.10
2016,09,22,00,52,11.10
2016,09,22,00,53,11.10
2016,09,22,00,54,10.90
2016,09,22,00,55,10.90
2016,09,22,00,56,10.90
2016,09,22,00,57,10.90
2016,09,22,00,58,10.90
2016,09,22,00,59,10.90
2016,09,22,01,00,10.90
2016,09,22,01,01,10.90
2016,09,22,01,02,10.90
2016,09,22,01,03,10.90
2016,09,22,01,04,10.80
2016,09,22,01,05,10.80
2016,09,22,01,07,10.80
2016,09,22,01,08,10.80
2016,09,22,01,09,10.80
2016,09,22,01,10,10.80
2016,09,22,01,11,10.80
2016,09,22,01,12,10.80
2016,09,22,01,13,10.80
2016,09,22,01,14,10.80
2016,09,22,01,15,10.80
2016,09,22,01,16,10.80
2016,09,22,01,17,10.80
2016,09,22,01,18,10.80
2016,09,22,01,19,10.80
2016,09,22,01,20,10.80
2016,09,22,01,21,10.80
2016,09,22,01,22,10.80
2016,09,22,01,23,10.70
2016,09,22,01,24,10.70
2016,09,22,01,25,10.70
2016,09,22,01,26,10.70
2016,09,22,01,27,10.70
2016,09,22,01,28,10.60
2016,09,22,01,29,10.60
2016,09,22,01,31,10.60
2016,09,22,01,32,10.60
2016,09,22,01,33,10.60
2016,09,22,01,34,10.40
2016,09,22,01,35,10.40
2016,09,22,01,36,10.40
2016,09,22,01,38,10.40
2016,09,22,01,39,10.40
2016,09,22,01,40,10.40
2016,09,22,01,41,10.40
2016,09,22,01,42,10.40
2016,09,22,01,43,10.40
2016,09,22,01,44,10.30
2016,09,22,01,46,10.40
2016,09,22,01,47,10.40
2016,09,22,01,48,10.40
2016,09,22,01,49,10.30
2016,09,22,01,50,10.30
2016,09,22,01,51,10.30
2016,09,22,01,52,10.30
2016,09,22,01,53,10.30
2016,09,22,01,54,10.30
2016,09,22,01,55,10.30
2016,09,22,01,56,10.20
2016,09,22,01,57,10.20
2016,09,22,01,58,10.20
2016,09,22,01,59,10.20
2016,09,22,02,01,10.20
2016,09,22,02,02,10.10
2016,09,22,02,04,10.10
2016,09,22,02,06,10.10
2016,09,22,02,07,10.10
2016,09,22,02,08,10.10
2016,09,22,02,09,10.10
2016,09,22,02,11,10.10
2016,09,22,02,12,10.10
2016,09,22,02,13,10.10
2016,09,22,02,14,10.10
2016,09,22,02,16,10.10
2016,09,22,02,17,10.10
2016,09,22,02,18,10.10
2016,09,22,02,19,10.10
2016,09,22,02,21,10.10
2016,09,22,02,22,10.10
2016,09,22,02,23,10.10
2016,09,22,02,24,10.10
2016,09,22,02,26,10.10
2016,09,22,02,27,10.10
2016,09,22,02,28,10.20
2016,09,22,02,29,10.20
2016,09,22,02,31,10.20
2016,09,22,02,32,10.20
2016,09,22,02,33,10.20
2016,09,22,02,34,10.20
2016,09,22,02,36,10.20
2016,09,22,02,37,10.20
2016,09,22,02,38,10.10
2016,09,22,02,39,10.10
2016,09,22,02,41,10.10
2016,09,22,02,42,10.10
2016,09,22,02,43,10.10
2016,09,22,02,44,10.10
2016,09,22,02,46,9.90
2016,09,22,02,47,9.90
2016,09,22,02,48,9.90
2016,09,22,02,49,9.90
2016,09,22,02,51,9.90
2016,09,22,02,52,9.90
2016,09,22,02,53,9.90
2016,09,22,02,54,9.90
2016,09,22,02,56,9.90
2016,09,22,02,57,9.90
2016,09,22,02,58,9.90
2016,09,22,02,59,9.90
2016,09,22,03,01,9.90
2016,09,22,03,02,9.90
2016,09,22,03,03,9.90
2016,09,22,03,04,9.90
2016,09,22,03,06,9.90
2016,09,22,03,07,9.90
2016,09,22,03,08,9.90
2016,09,22,03,09,9.90
2016,09,22,03,11,10.10
2016,09,22,03,12,10.10
2016,09,22,03,13,10.10
2016,09,22,03,14,10.10
2016,09,22,03,16,10.10
2016,09,22,03,17,10.10
2016,09,22,03,18,10.20
2016,09,22,03,19,10.20
2016,09,22,03,21,10.20
2016,09,22,03,22,10.20
2016,09,22,03,23,10.20
2016,09,22,03,24,10.20
2016,09,22,03,25,10.20
2016,09,22,03,26,10.20
2016,09,22,03,27,10.20
2016,09,22,03,28,10.20
2016,09,22,03,29,10.20
2016,09,22,03,30,10.20
2016,09,22,03,31,10.10
2016,09,22,03,32,10.10
2016,09,22,03,33,10.10
2016,09,22,03,34,10.10
2016,09,22,03,36,10.10
2016,09,22,03,37,10.10
2016,09,22,03,38,10.10
2016,09,22,03,39,10.10
2016,09,22,03,40,9.90
2016,09,22,03,41,9.90
2016,09,22,03,42,9.90
2016,09,22,03,43,9.90
2016,09,22,05,28,9.90
2016,09,22,05,29,9.90
2016,09,22,05,30,9.80
2016,09,22,05,31,9.80
2016,09,22,05,32,9.80
2016,09,22,05,33,9.80
2016,09,22,05,34,9.80
2016,09,22,05,35,9.80
2016,09,22,05,36,9.80
2016,09,22,05,37,9.80
2016,09,22,05,38,9.80
2016,09,22,05,39,9.80
2016,09,22,05,40,9.80
2016,09,22,05,41,9.80
2016,09,22,05,42,9.80
2016,09,22,05,43,9.80
2016,09,22,05,44,9.80
2016,09,22,05,45,9.80
2016,09,22,05,46,9.80
2016,09,22,05,47,9.80
2016,09,22,06,28,9.70
2016,09,22,06,29,9.70
2016,09,22,06,30,9.70
2016,09,22,06,31,9.70
2016,09,22,06,32,9.80
2016,09,22,06,33,9.80
2016,09,22,06,34,9.90
2016,09,22,06,35,9.90
2016,09,22,06,36,9.90
2016,09,22,06,37,9.90
2016,09,22,06,38,9.90
2016,09,22,06,39,9.90
2016,09,22,06,40,9.90
2016,09,22,06,41,9.90
2016,09,22,06,42,9.90
2016,09,22,06,43,9.90
2016,09,22,06,44,9.90
2016,09,22,06,45,9.90
2016,09,22,06,46,10.10
2016,09,22,06,47,10.10
2016,09,22,06,48,10.10
2016,09,22,06,49,10.10
2016,09,22,06,50,10.10
2016,09,22,06,51,10.20
2016,09,22,06,52,10.20
2016,09,22,06,53,10.20
2016,09,22,06,54,10.20
2016,09,22,06,55,10.20
2016,09,22,06,56,10.10
2016,09,22,06,57,10.10
2016,09,22,06,58,10.10
2016,09,22,06,59,10.10
2016,09,22,07,00,10.10
2016,09,22,07,01,10.10
2016,09,22,07,02,9.90
2016,09,22,07,03,9.90
2016,09,22,07,04,9.90
2016,09,22,07,05,9.90
2016,09,22,07,06,9.90
2016,09,22,07,07,9.90
2016,09,22,07,08,9.90
2016,09,22,07,09,9.90
2016,09,22,07,10,9.80
2016,09,22,07,11,9.80
2016,09,22,07,12,9.80
2016,09,22,07,13,9.80
2016,09,22,07,14,9.80
2016,09,22,07,16,9.80
2016,09,22,07,17,9.80
2016,09,22,07,18,9.80
2016,09,22,07,19,9.80
2016,09,22,07,21,9.80
2016,09,22,07,22,9.80
2016,09,22,07,23,9.90
2016,09,22,07,24,9.90
2016,09,22,07,26,9.90
2016,09,22,07,27,9.90
2016,09,22,07,29,10.10
2016,09,22,07,31,10.10
2016,09,22,07,32,10.10
2016,09,22,07,33,10.20
2016,09,22,07,34,10.30
2016,09,22,07,36,10.40
2016,09,22,07,37,10.40
2016,09,22,07,38,10.40
2016,09,22,07,39,10.40
2016,09,22,07,41,10.60
2016,09,22,07,42,10.60
2016,09,22,07,43,10.70
2016,09,22,07,44,10.80
2016,09,22,07,46,10.80
2016,09,22,07,47,10.90
2016,09,22,07,48,10.90
2016,09,22,07,49,10.90
2016,09,22,07,51,10.90
2016,09,22,07,52,10.90
2016,09,22,07,53,11.10
2016,09,22,07,54,11.10
2016,09,22,07,56,11.10
2016,09,22,07,57,11.10
2016,09,22,07,58,11.10
2016,09,22,07,59,11.10
2016,09,22,08,01,11.20
2016,09,22,08,02,11.20
2016,09,22,08,03,11.30
2016,09,22,08,04,11.30
2016,09,22,08,06,11.40
2016,09,22,08,07,11.40
2016,09,22,08,08,11.40
2016,09,22,08,09,11.40
2016,09,22,08,11,11.40
2016,09,22,08,12,11.60
2016,09,22,08,13,11.60
2016,09,22,08,14,11.60
2016,09,22,08,16,11.60
2016,09,22,08,17,11.60
2016,09,22,08,18,11.60
2016,09,22,08,19,11.60
2016,09,22,08,21,11.60
2016,09,22,08,22,11.60
2016,09,22,08,23,11.60
2016,09,22,08,24,11.60
2016,09,22,08,26,11.60
2016,09,22,08,27,11.60
2016,09,22,08,28,11.70
2016,09,22,08,29,11.70
2016,09,22,08,30,11.70
2016,09,22,08,31,11.70
2016,09,22,08,32,11.70
2016,09,22,08,33,11.70
2016,09,22,08,34,11.70
2016,09,22,08,36,11.80
2016,09,22,08,37,11.80
2016,09,22,08,38,11.80
2016,09,22,08,39,11.80
2016,09,22,08,40,11.80
2016,09,22,08,41,11.80
2016,09,22,08,42,11.80
2016,09,22,08,43,11.90
2016,09,22,08,44,11.90
2016,09,22,08,45,11.90
2016,09,22,08,46,11.90
2016,09,22,08,47,12.00
2016,09,22,08,48,12.00
2016,09,22,08,49,12.00
2016,09,22,08,50,12.00
2016,09,22,08,51,12.10
2016,09,22,08,52,12.10
2016,09,22,08,53,12.10
2016,09,22,08,54,12.10
2016,09,22,08,55,12.20
2016,09,22,08,56,12.20
2016,09,22,08,57,12.20
2016,09,22,08,58,12.20
2016,09,22,08,59,12.30
2016,09,22,09,00,12.30
2016,09,22,09,01,12.30
2016,09,22,09,02,12.30
2016,09,22,09,03,12.30
2016,09,22,09,04,12.30
2016,09,22,09,05,12.30
2016,09,22,09,06,12.40
2016,09,22,09,07,12.40
2016,09,22,09,08,12.40
2016,09,22,09,09,12.40
2016,09,22,09,10,12.50
2016,09,22,09,11,12.50
2016,09,22,09,12,12.50
2016,09,22,09,13,12.50
2016,09,22,09,14,12.50
2016,09,22,09,15,12.50
2016,09,22,09,16,12.50
2016,09,22,09,17,12.60
2016,09,22,09,18,12.60
2016,09,22,09,19,12.60
2016,09,22,09,20,12.60
2016,09,22,09,21,12.60
2016,09,22,09,22,12.60
2016,09,22,09,23,12.60
2016,09,22,09,24,12.60
2016,09,22,09,25,12.60
2016,09,22,09,26,12.60
2016,09,22,09,27,12.60
2016,09,22,09,28,12.60
2016,09,22,09,29,12.70
2016,09,22,09,30,12.70
2016,09,22,09,31,12.80
2016,09,22,09,33,12.80
2016,09,22,09,34,12.90
2016,09,22,09,35,13.00
2016,09,22,09,36,13.00
2016,09,22,09,37,13.10
2016,09,22,09,38,13.20
2016,09,22,09,39,13.30
2016,09,22,09,40,13.30
2016,09,22,09,41,13.30
2016,09,22,09,42,13.30
2016,09,22,09,43,13.40
2016,09,22,09,44,13.40
2016,09,22,09,45,13.40
2016,09,22,09,46,13.50
2016,09,22,09,47,13.60
2016,09,22,09,48,13.60
2016,09,22,09,49,13.70
2016,09,22,09,50,13.70
2016,09,22,09,51,13.70
2016,09,22,09,52,13.70
2016,09,22,09,54,13.90
2016,09,22,09,55,13.90
2016,09,22,09,57,14.10
2016,09,22,09,58,14.20
2016,09,22,09,59,14.20
2016,09,22,10,01,14.30
2016,09,22,10,02,14.30
2016,09,22,10,03,14.40
2016,09,22,10,04,14.50
2016,09,22,10,06,14.60
2016,09,22,10,07,14.60
2016,09,22,10,08,14.70
2016,09,22,10,09,14.80
2016,09,22,10,11,14.80
2016,09,22,10,12,14.80
2016,09,22,10,13,14.80
2016,09,22,10,14,14.80
2016,09,22,10,16,14.80
2016,09,22,10,17,14.80
2016,09,22,10,18,14.80
2016,09,22,10,19,14.80
2016,09,22,10,21,14.90
2016,09,22,10,22,15.00
2016,09,22,10,23,15.00
2016,09,22,10,24,15.10
2016,09,22,10,26,15.10
2016,09,22,10,27,15.10
2016,09,22,10,28,15.10
2016,09,22,10,29,15.20
2016,09,22,10,31,15.30
2016,09,22,10,32,15.30
2016,09,22,10,33,15.30
2016,09,22,10,34,15.30
2016,09,22,10,36,15.30
2016,09,22,10,37,15.30
2016,09,22,10,38,15.30
2016,09,22,10,39,15.30
2016,09,22,10,41,15.40
2016,09,22,10,42,15.50
2016,09,22,10,43,15.50
2016,09,22,10,44,15.60
2016,09,22,10,46,15.70
2016,09,22,10,47,15.80
2016,09,22,10,48,15.80
2016,09,22,10,49,15.80
2016,09,22,10,51,15.90
2016,09,22,10,52,16.10
2016,09,22,10,53,16.10
2016,09,22,10,54,16.10
2016,09,22,10,56,16.10
2016,09,22,10,57,16.20
2016,09,22,10,58,16.10
2016,09,22,10,59,16.10
2016,09,22,11,28,16.40
2016,09,22,11,29,16.40
2016,09,22,11,30,16.40
2016,09,22,11,31,16.40
2016,09,22,11,32,16.40
2016,09,22,11,33,16.40
2016,09,22,11,34,16.40
2016,09,22,11,35,16.40
2016,09,22,11,36,16.60
2016,09,22,11,37,16.60
2016,09,22,11,38,16.60
2016,09,22,11,39,16.70
2016,09,22,11,40,16.70
2016,09,22,11,41,16.70
2016,09,22,11,42,16.70
2016,09,22,11,43,16.70
2016,09,22,11,44,16.70
2016,09,22,11,45,16.70
2016,09,22,11,46,16.70
2016,09,22,11,47,16.80
2016,09,22,11,48,16.70
2016,09,22,11,49,16.70
2016,09,22,11,50,16.60
2016,09,22,11,51,16.40
2016,09,22,11,52,16.40
2016,09,22,11,53,16.40
2016,09,22,11,54,16.30
2016,09,22,11,55,16.20
2016,09,22,11,56,16.10
2016,09,22,11,57,15.90
2016,09,22,11,58,15.80
2016,09,22,11,59,15.80
2016,09,22,12,00,15.70
2016,09,22,12,01,15.70
2016,09,22,12,02,15.70
2016,09,22,12,03,15.70
2016,09,22,12,04,15.70
2016,09,22,12,05,15.80
2016,09,22,12,06,15.80
2016,09,22,12,07,15.80
2016,09,22,12,08,15.80
2016,09,22,12,09,15.90
2016,09,22,12,10,15.90
2016,09,22,12,11,16.10
2016,09,22,12,12,16.10
2016,09,22,12,13,16.20
2016,09,22,12,14,16.30
2016,09,22,12,15,16.40
2016,09,22,12,17,16.40
2016,09,22,12,18,16.40
2016,09,22,12,19,16.40
2016,09,22,12,21,16.40
2016,09,22,12,22,16.40
2016,09,22,12,23,16.40
2016,09,22,12,24,16.40
2016,09,22,12,26,16.30
2016,09,22,12,27,16.30
2016,09,22,12,28,16.30
2016,09,22,12,29,16.40
2016,09,22,12,31,16.40
2016,09,22,12,32,16.40
2016,09,22,12,33,16.30
2016,09,22,12,34,16.20
2016,09,22,12,36,16.10
2016,09,22,12,37,16.10
2016,09,22,12,38,16.10
2016,09,22,12,39,16.10
2016,09,22,12,41,16.10
2016,09,22,12,42,16.10
2016,09,22,12,43,16.10
2016,09,22,12,44,16.10
2016,09,22,12,46,15.90
2016,09,22,12,47,15.90
2016,09,22,12,48,15.80
2016,09,22,12,49,15.80
2016,09,22,12,51,15.80
2016,09,22,12,52,15.70
2016,09,22,12,53,15.70
2016,09,22,12,54,15.70
2016,09,22,12,56,15.70
2016,09,22,12,57,15.70
2016,09,22,12,58,15.80
2016,09,22,12,59,15.80
2016,09,22,13,01,15.80
2016,09,22,13,02,15.80
2016,09,22,13,03,15.80
2016,09,22,13,04,15.90
2016,09,22,13,06,16.10
2016,09,22,13,07,16.10
2016,09,22,13,08,16.10
2016,09,22,13,09,16.10
2016,09,22,13,11,16.10
2016,09,22,13,12,16.10
2016,09,22,13,13,16.10
2016,09,22,13,14,16.10
2016,09,22,13,16,16.10
2016,09,22,13,28,16.10
2016,09,22,13,29,15.90
2016,09,22,13,30,15.90
2016,09,22,13,31,15.90
2016,09,22,13,32,16.10
2016,09,22,13,33,15.90
2016,09,22,13,34,15.90
2016,09,22,13,35,15.90
2016,09,22,13,36,15.90
2016,09,22,13,37,15.90
2016,09,22,13,38,15.80
2016,09,22,13,39,15.80
2016,09,22,13,40,15.80
2016,09,22,13,41,15.70
2016,09,22,13,42,15.70
2016,09,22,13,43,15.60
2016,09,22,13,44,15.50
2016,09,22,13,45,15.50
2016,09,22,13,46,15.50
2016,09,22,13,47,15.40
2016,09,22,13,48,15.30
2016,09,22,13,49,15.30
2016,09,22,13,50,15.30
2016,09,22,13,51,15.30
2016,09,22,13,52,15.30
2016,09,22,13,53,15.30
2016,09,22,13,54,15.30
2016,09,22,13,55,15.40
2016,09,22,13,56,15.40
2016,09,22,13,57,15.50
2016,09,22,13,58,15.60
2016,09,22,13,59,15.60
2016,09,22,14,00,15.70
2016,09,22,14,01,15.80
2016,09,22,14,02,15.80
2016,09,22,14,03,15.90
2016,09,22,14,04,16.10
2016,09,22,14,05,16.10
2016,09,22,14,06,16.10
2016,09,22,14,07,16.20
2016,09,22,14,08,16.20
2016,09,22,14,09,16.30
2016,09,22,14,10,16.30
2016,09,22,14,12,16.40
2016,09,22,14,13,16.40
2016,09,22,14,14,16.40
2016,09,22,14,16,16.60
2016,09,22,14,17,16.70
2016,09,22,14,18,16.70
2016,09,22,14,19,16.70
2016,09,22,14,21,16.70
2016,09,22,14,22,16.70
2016,09,22,14,23,16.70
2016,09,22,14,24,16.70
2016,09,22,14,26,16.70
2016,09,22,14,27,16.80
2016,09,22,14,28,16.80
2016,09,22,14,29,16.90
2016,09,22,14,31,17.00
2016,09,22,14,32,17.00
2016,09,22,14,33,17.10
2016,09,22,14,36,17.00
2016,09,22,14,37,17.00
2016,09,22,14,38,16.90
2016,09,22,14,39,16.90
2016,09,22,14,41,16.80
2016,09,22,14,42,16.80
2016,09,22,14,43,16.80
2016,09,22,14,44,16.90
2016,09,22,14,46,16.90
2016,09,22,14,47,16.90
2016,09,22,14,48,16.90
2016,09,22,14,49,16.90
2016,09,22,14,51,16.90
2016,09,22,14,52,16.90
2016,09,22,14,53,17.00
2016,09,22,14,54,17.00
2016,09,22,14,56,17.10
2016,09,22,14,57,17.10
2016,09,22,14,58,17.10
2016,09,22,14,59,17.00
2016,09,22,15,01,16.90
2016,09,22,15,02,16.80
2016,09,22,15,03,16.80
2016,09,22,15,04,16.70
2016,09,22,15,06,16.70
2016,09,22,15,07,16.70
2016,09,22,15,08,16.70
2016,09,22,15,09,16.60
2016,09,22,15,11,16.40
2016,09,22,15,12,16.30
2016,09,22,15,13,16.20
2016,09,22,15,14,16.20
2016,09,22,15,16,15.90
2016,09,22,15,17,15.80
2016,09,22,15,18,15.80
2016,09,22,15,19,15.80
2016,09,22,15,21,15.70
2016,09,22,15,22,15.60
2016,09,22,15,23,15.50
2016,09,22,15,24,15.50
2016,09,22,15,26,15.40
2016,09,22,15,27,15.40
2016,09,22,15,28,15.40
2016,09,22,15,29,15.40
2016,09,22,15,30,15.40
2016,09,22,15,31,15.40
2016,09,22,15,32,15.40
2016,09,22,15,33,15.40
2016,09,22,15,34,15.40
2016,09,22,15,36,15.30
2016,09,22,15,37,15.30
2016,09,22,15,38,15.30
2016,09,22,15,39,15.30
2016,09,22,15,40,15.30
2016,09,22,15,41,15.20
2016,09,22,15,42,15.10
2016,09,22,15,43,15.00
2016,09,22,15,44,15.00
2016,09,22,15,45,14.90
2016,09,22,15,46,14.90
2016,09,22,15,47,14.80
2016,09,22,15,48,14.80
2016,09,22,15,49,14.70
2016,09,22,15,50,14.70
2016,09,22,15,51,14.60
2016,09,22,15,52,14.60
2016,09,22,15,53,14.60
2016,09,22,15,54,14.60
2016,09,22,15,55,14.60
2016,09,22,15,56,14.60
2016,09,22,15,57,14.60
2016,09,22,15,58,14.60
2016,09,22,15,59,14.50
2016,09,22,16,00,14.40
2016,09,22,16,01,14.40
2016,09,22,16,02,14.30
2016,09,22,16,03,14.30
2016,09,22,16,04,14.20
2016,09,22,16,05,14.20
2016,09,22,16,06,14.20
2016,09,22,16,07,14.20
2016,09,22,16,08,14.20
2016,09,22,16,09,14.20
2016,09,22,16,10,14.10
2016,09,22,16,11,14.10
2016,09,22,16,12,14.10
2016,09,22,16,13,14.10
2016,09,22,16,14,14.10
2016,09,22,16,15,14.10
2016,09,22,16,16,14.10
2016,09,22,16,17,14.10
2016,09,22,16,18,14.10
2016,09,22,16,19,14.00
2016,09,22,16,20,14.00
2016,09,22,16,21,14.00
2016,09,22,16,22,14.00
2016,09,22,16,23,14.00
2016,09,22,16,24,14.00
2016,09,22,16,25,14.00
2016,09,22,16,26,13.90
2016,09,22,16,27,13.90
2016,09,22,16,28,13.90
2016,09,22,16,29,13.90
2016,09,22,16,30,13.90
2016,09,22,16,31,13.90
2016,09,22,16,32,13.90
2016,09,22,16,33,13.90
2016,09,22,16,34,13.90
2016,09,22,16,35,14.00
2016,09,22,16,36,14.00
2016,09,22,16,37,14.00
2016,09,22,17,28,13.00
2016,09,22,17,29,13.00
2016,09,22,17,30,13.00
2016,09,22,17,31,13.10
2016,09,22,17,32,13.10
2016,09,22,17,33,13.10
2016,09,22,17,34,13.10
2016,09,22,17,36,13.10
2016,09,22,17,37,13.10
2016,09,22,17,38,13.10
2016,09,22,17,39,13.10
2016,09,22,17,40,13.10
2016,09,22,17,41,13.10
2016,09,22,17,42,13.10
2016,09,22,17,43,13.10
2016,09,22,17,44,13.10
2016,09,22,17,45,13.10
2016,09,22,17,46,13.10
2016,09,22,17,47,13.10
2016,09,22,17,48,13.10
2016,09,22,17,49,13.10
2016,09,22,17,50,13.10
2016,09,22,17,51,13.10
2016,09,22,17,52,13.00
2016,09,22,17,53,13.00
2016,09,22,17,54,13.00
2016,09,22,17,55,12.90
2016,09,22,17,56,12.90
2016,09,22,17,57,12.80
2016,09,22,17,58,12.80
2016,09,22,17,59,12.80
2016,09,22,18,00,12.80
2016,09,22,18,01,12.80
2016,09,22,18,02,12.80
2016,09,22,18,03,12.80
2016,09,22,18,04,12.70
2016,09,22,18,05,12.70
2016,09,22,18,06,12.70
2016,09,22,18,07,12.70
2016,09,22,18,08,12.70
2016,09,22,18,09,12.70
2016,09,22,18,10,12.70
2016,09,22,18,11,12.70
2016,09,22,18,12,12.70
2016,09,22,18,13,12.70
2016,09,22,18,14,12.70
2016,09,22,18,15,12.70
2016,09,22,18,16,12.70
2016,09,22,18,18,12.70
2016,09,22,18,19,12.70
2016,09,22,18,21,12.70
2016,09,22,18,22,12.70
2016,09,22,18,23,12.70
2016,09,22,18,24,12.80
2016,09,22,18,25,12.80
2016,09,22,18,27,12.80
2016,09,22,18,28,12.80
2016,09,22,18,29,12.80
2016,09,22,18,31,12.90
2016,09,22,18,32,13.00
2016,09,22,18,33,13.10
2016,09,22,18,34,13.20
2016,09,22,18,36,13.30
2016,09,22,18,37,13.30
2016,09,22,18,38,13.40
2016,09,22,18,39,13.50
2016,09,22,18,41,13.70
2016,09,22,18,42,13.70
2016,09,22,18,43,13.70
2016,09,22,18,44,13.80
2016,09,22,18,46,13.90
2016,09,22,18,47,14.00
2016,09,22,18,48,14.00
2016,09,22,18,49,14.10
2016,09,22,18,51,14.20
2016,09,22,18,52,14.20
2016,09,22,18,53,14.20
2016,09,22,18,54,14.30
2016,09,22,18,56,14.30
2016,09,22,18,57,14.40
2016,09,22,18,58,14.40
2016,09,22,18,59,14.40
2016,09,22,19,01,14.40
2016,09,22,19,02,14.40
2016,09,22,19,03,14.40
2016,09,22,19,04,14.40
2016,09,22,19,06,14.40
2016,09,22,19,07,14.40
2016,09,22,19,08,14.30
2016,09,22,19,09,14.20
2016,09,22,19,11,14.10
2016,09,22,19,12,14.00
2016,09,22,19,13,13.90
2016,09,22,19,14,13.80
2016,09,22,19,16,13.70
2016,09,22,19,17,13.70
2016,09,22,19,18,13.60
2016,09,22,19,19,13.60
2016,09,22,19,21,13.60
2016,09,22,19,22,13.60
2016,09,22,19,23,13.60
2016,09,22,19,24,13.60
2016,09,22,19,26,13.50
2016,09,22,19,27,13.50
2016,09,22,19,28,13.50
2016,09,22,19,29,13.50
2016,09,22,19,31,13.50
2016,09,22,19,32,13.50
2016,09,22,19,33,13.50
2016,09,22,19,34,13.50
2016,09,22,19,36,13.50
2016,09,22,19,37,13.50
2016,09,22,19,38,13.60
2016,09,22,19,39,13.60
2016,09,22,19,40,13.60
2016,09,22,19,41,13.60
2016,09,22,19,42,13.60
2016,09,22,19,43,13.60
2016,09,22,19,44,13.60
2016,09,22,19,45,13.60
2016,09,22,19,46,13.60
2016,09,22,19,47,13.50
2016,09,22,19,48,13.50
2016,09,22,19,49,13.40
2016,09,22,19,50,13.40
2016,09,22,19,51,13.30
2016,09,22,19,52,13.30
2016,09,22,19,53,13.30
2016,09,22,19,54,13.30
2016,09,22,19,55,13.20
2016,09,22,19,56,13.20
2016,09,22,19,57,13.20
2016,09,22,19,58,13.20
2016,09,22,19,59,13.10
2016,09,22,20,00,13.10
2016,09,22,20,01,13.10
2016,09,22,20,02,13.10
2016,09,22,20,03,13.00
2016,09,22,20,04,13.00
2016,09,22,20,05,13.00
2016,09,22,20,06,13.00
2016,09,22,20,07,12.90
2016,09,22,20,08,12.90
2016,09,22,20,09,12.90
2016,09,22,20,10,12.90
2016,09,22,20,11,12.90
2016,09,22,20,12,12.90
2016,09,22,20,13,12.90
2016,09,22,20,14,12.90
2016,09,22,20,15,12.90
2016,09,22,20,16,12.90
2016,09,22,20,17,12.90
2016,09,22,20,18,12.90
2016,09,22,20,19,12.90
2016,09,22,20,20,12.90
2016,09,22,20,21,12.90
2016,09,22,20,22,13.00
2016,09,22,20,23,13.00
2016,09,22,20,24,13.00
2016,09,22,20,25,13.00
2016,09,22,20,26,13.00
2016,09,22,20,27,13.10
2016,09,22,20,28,13.10
2016,09,22,20,29,13.10
2016,09,22,20,30,13.10
2016,09,22,20,31,13.20
2016,09,22,20,32,13.20
2016,09,22,20,33,13.20
2016,09,22,20,34,13.20
2016,09,22,20,35,13.20
2016,09,22,20,36,13.20
2016,09,22,20,37,13.10
2016,09,22,20,38,13.10
2016,09,22,20,39,13.00
2016,09,22,20,40,13.00
2016,09,22,20,41,12.90
2016,09,22,20,42,12.80
2016,09,22,20,43,12.80
2016,09,22,20,44,12.80
2016,09,22,20,45,12.70
2016,09,22,20,46,12.70
2016,09,22,20,47,12.70
2016,09,22,20,48,12.60
2016,09,22,20,49,12.60
2016,09,22,20,50,12.50
2016,09,22,20,51,12.50
2016,09,22,20,52,12.50
2016,09,22,20,53,12.50
2016,09,22,20,54,12.40
2016,09,22,20,55,12.40
2016,09,22,20,56,12.40
2016,09,22,20,57,12.40
2016,09,22,20,58,12.40
2016,09,22,20,59,12.40
2016,09,22,21,00,12.40
2016,09,22,21,02,12.30
2016,09,22,21,03,12.30
2016,09,22,21,04,12.30
2016,09,22,21,06,12.30
2016,09,22,21,07,12.30
2016,09,22,21,08,12.30
2016,09,22,21,09,12.30
2016,09,22,21,11,12.30
2016,09,22,21,12,12.30
2016,09,22,21,13,12.30
2016,09,22,21,14,12.30
2016,09,22,21,16,12.30
2016,09,22,21,17,12.30
2016,09,22,21,18,12.30
2016,09,22,21,19,12.30
2016,09,22,21,21,12.30
2016,09,22,21,22,12.30
2016,09,22,21,23,12.30
2016,09,22,21,24,12.30
2016,09,22,21,26,12.30
2016,09,22,21,27,12.30
2016,09,22,21,28,12.30
2016,09,22,21,29,12.30
2016,09,22,21,31,12.30
2016,09,22,21,32,12.30
2016,09,22,21,33,12.30
2016,09,22,21,34,12.30
2016,09,22,21,36,12.30
2016,09,22,21,37,12.30
2016,09,22,21,38,12.30
2016,09,22,21,39,12.30
2016,09,22,21,41,12.30
2016,09,22,21,42,12.30
2016,09,22,21,43,12.30
2016,09,22,21,44,12.30
2016,09,22,21,46,12.20
2016,09,22,21,47,12.20
2016,09,22,21,48,12.20
2016,09,22,21,49,12.20
2016,09,22,21,51,12.20
2016,09,22,21,52,12.20
2016,09,22,21,53,12.20
2016,09,22,21,54,12.20
2016,09,22,21,56,12.20
2016,09,22,21,57,12.20
2016,09,22,21,58,12.20
2016,09,22,21,59,12.20
2016,09,22,22,01,12.30
2016,09,22,22,02,12.30
2016,09,22,22,03,12.30
2016,09,22,22,04,12.30
2016,09,22,22,06,12.30
2016,09,22,22,28,12.20
2016,09,22,22,29,12.20
2016,09,22,22,30,12.20
2016,09,22,22,31,12.20
2016,09,22,22,32,12.20
2016,09,22,22,33,12.20
2016,09,22,22,34,12.20
2016,09,22,22,36,12.20
2016,09,22,22,37,12.20
2016,09,22,22,38,12.20
2016,09,22,22,39,12.20
2016,09,22,22,40,12.10
2016,09,22,22,41,12.10
2016,09,22,22,42,12.10
2016,09,22,22,43,12.10
2016,09,22,22,44,12.10
2016,09,22,22,45,12.10
2016,09,22,22,46,12.10
2016,09,22,22,47,12.10
2016,09,22,22,48,12.10
2016,09,22,22,49,12.10
2016,09,22,22,50,12.10
2016,09,22,22,51,12.10
2016,09,22,22,52,12.10
2016,09,22,22,53,12.10
2016,09,22,22,54,12.10
2016,09,22,22,55,12.10
2016,09,22,22,56,12.10
2016,09,22,22,57,12.10
2016,09,22,22,58,12.10
2016,09,22,22,59,12.20
2016,09,22,23,00,12.20
2016,09,22,23,01,12.20
2016,09,22,23,02,12.20
2016,09,22,23,03,12.20
2016,09,22,23,04,12.20
2016,09,22,23,05,12.20
2016,09,22,23,06,12.20
2016,09,22,23,07,12.20
2016,09,22,23,08,12.20
2016,09,22,23,09,12.20
2016,09,22,23,10,12.20
2016,09,22,23,11,12.10
2016,09,22,23,12,12.10
2016,09,22,23,13,12.10
2016,09,22,23,14,12.10
2016,09,22,23,16,12.00
2016,09,22,23,17,12.00
2016,09,22,23,19,11.90
2016,09,22,23,21,11.90
2016,09,22,23,22,11.90
2016,09,22,23,23,11.90
2016,09,22,23,24,11.90
2016,09,22,23,26,11.80
2016,09,22,23,27,11.80
2016,09,22,23,28,11.80
2016,09,22,23,29,11.80
2016,09,22,23,31,11.80
2016,09,22,23,32,11.80
2016,09,22,23,33,11.80
2016,09,22,23,34,11.80
2016,09,22,23,36,11.80
2016,09,22,23,37,11.80
2016,09,22,23,38,11.80
2016,09,22,23,39,11.80
2016,09,22,23,41,11.80
2016,09,22,23,42,11.80
2016,09,22,23,43,11.80
2016,09,22,23,44,11.80
2016,09,22,23,46,11.80
2016,09,22,23,47,11.80
2016,09,22,23,48,11.80
2016,09,22,23,49,11.70
2016,09,22,23,51,11.70
2016,09,22,23,52,11.70
2016,09,22,23,53,11.70
2016,09,22,23,54,11.70
2016,09,22,23,56,11.70